This is the latest recevied weather packets stored in our database for station/object JQ1YUX-13. If no packets are shown the sender has not sent any weather packets the latest 10 day(s).
| Time | Temp. | Humidity | Pressure | Rain* | Wind** | Luminosity | Snow |
|---|---|---|---|---|---|---|---|
| 1777661885 | 15° C | 80% | 997.4 hPa | 0 mm | - | - | - |
| 1777660985 | 15° C | 80% | 996.7 hPa | 0 mm | - | - | - |
| 1777660086 | 15° C | 80% | 996.4 hPa | 0 mm | - | - | - |
| 1777659184 | 15° C | 79% | 995.7 hPa | 0 mm | - | - | - |
| 1777658285 | 15° C | 79% | 995.4 hPa | 0 mm | - | - | - |
| 1777657386 | 15° C | 78% | 995.4 hPa | 0 mm | - | - | - |
| 1777656484 | 15° C | 78% | 995.1 hPa | 0 mm | - | - | - |
| 1777655922 | 15.56° C | 78% | 994.9 hPa | 0 mm | - | - | - |
| 1777655585 | 15.56° C | 77% | 994.7 hPa | 0 mm | - | - | - |
| 1777654686 | 15.56° C | 77% | 994.6 hPa | 0 mm | - | - | - |
| 1777653784 | 15.56° C | 78% | 994.7 hPa | 0 mm | - | - | - |
| 1777652885 | 15.56° C | 79% | 994.6 hPa | 0 mm | - | - | - |
| 1777652326 | 15° C | 81% | 994.4 hPa | 0 mm | - | - | - |
| 1777651986 | 15° C | 82% | 994.5 hPa | 0 mm | - | - | - |
| 1777651084 | 14.44° C | 86% | 994.6 hPa | 0 mm | - | - | - |
| 1777650185 | 15° C | 88% | 994.6 hPa | 0 mm | - | - | - |
| 1777649286 | 15° C | 88% | 994.7 hPa | 0 mm | - | - | - |
| 1777648385 | 15° C | 88% | 994.8 hPa | 0 mm | - | - | - |
| 1777647485 | 15° C | 87% | 994.8 hPa | 0 mm | - | - | - |
| 1777646586 | 15.56° C | 87% | 994.7 hPa | 0 mm | - | - | - |
| 1777645684 | 15.56° C | 86% | 994.5 hPa | 0 mm | - | - | - |
| 1777644785 | 16.11° C | 85% | 994.4 hPa | 0 mm | - | - | - |
| 1777643886 | 16.11° C | 84% | 994.6 hPa | 0 mm | - | - | - |
| 1777642984 | 16.67° C | 84% | 994.5 hPa | 0 mm | - | - | - |
| 1777642084 | 16.67° C | 82% | 994.4 hPa | 0 mm | - | - | - |
* Rain latest hour (hover to see other rain measurements)
** Current wind speed in m/s (hover to see current wind gust speed)